Lid_Strength_Index
5 4 3 3 3 2 2 2 2 2 2 2 2 2 2 1 1 1 1 1 0 0 1 1 2 1 1 1 1 1 2 2 1 2 3 2 1 1 1 1 1 1 0
6 5 4 3 3 4 2 2 2 2 2 1 1 1 1 1 1 1 1 1 0 0 0 1 1 1 1 1 1 1 2 2 1 3 4 6 4 3 1 1 1 1 1
6 5 4 4 3 3 3 3 2 2 2 2 1 2 1 2 2 1 1 1 1 1 1 1 1 1 1 1 1 1 2 3 2 1 3 6 7 5 2 2 2 1 1
5 5 4 4 4 3 2 3 2 2 2 2 2 2 3 3 2 2 1 1 1 1 1 1 1 1 1 1 1 1 1 2 3 3 2 2 3 6 6 3 2 2 1
5 5 4 3 3 3 3 2 2 2 1 1 2 2 3 2 2 2 2 1 1 0 1 1 1 1 1 1 1 1 1 1 2 2 3 3 3 4 5 6 4 3 3
6 6 5 5 4 4 3 3 2 2 2 2 2 2 3 2 3 2 2 2 1 1 1 0 1 1 1 1 1 1 1 1 1 2 2 3 4 4 4 5 5 5 5
7 7 7 6 5 5 5 3 4 3 2 2 2 2 2 2 3 2 2 2 2 2 1 1 1 1 0 1 1 1 1 1 2 2 2 2 2 3 3 4 5 5 4
7 7 6 6 5 4 3 3 3 3 3 2 2 2 2 2 2 2 2 2 2 1 1 1 1 1 1 0 1 1 1 1 1 2 1 2 2 2 3 4 4 6 5
7 5 6 5 6 6 4 3 3 3 3 2 3 2 2 2 2 2 1 1 1 1 1 1 1 1 1 1 1 1 1 1 1 1 2 2 2 3 3 2 3 5 7
7 6 6 6 6 6 6 6 5 3 3 2 2 2 2 2 2 2 2 1 1 1 1 1 1 1 1 1 1 1 1 1 1 1 2 2 2 3 3 2 2 3 4
7 7 6 6 7 6 6 6 5 5 5 5 4 3 2 2 2 2 2 1 1 1 1 1 1 1 1 1 1 1 1 2 2 1 2 2 2 2 2 2 2 2 3
7 7 8 7 7 8 7 7 7 7 6 5 5 5 3 2 2 2 2 1 1 1 1 1 1 1 1 5 3 2 1 3 2 2 2 2 2 2 2 2 2 2 2
8 8 8 8 8 8 7 7 7 6 6 6 6 6 5 3 2 2 2 1 1 1 1 1 3 4 2 4 2 2 3 3 4 2 2 2 2 3 2 2 2 3 3
9 9 9 9 8 8 8 8 7 6 7 6 6 6 6 5 3 2 2 2 1 1 1 3 4 4 4 3 2 2 3 3 4 2 1 1 2 2 2 3 3 3 3
10 10 10 10 10 10 9 9 8 8 7 7 7 7 6 5 4 2 2 2 2 2 1 3 3 4 4 3 3 2 2 3 2 1 1 1 3 3 3 3 4 5 6
11 11 10 10 10 10 10 9 9 9 8 8 8 7 7 6 5 3 2 2 2 2 1 3 2 4 2 5 5 2 2 2 2 2 2 3 4 5 6 6 6 6 5
11 11 11 11 11 10 10 9 9 8 8 8 8 7 6 6 6 3 2 2 3 2 2 3 2 3 2 7 7 5 2 2 2 2 4 4 4 5 5 6 6 5 3
11 11 11 11 11 11 10 10 9 9 9 9 8 7 6 6 6 4 4 2 3 2 2 3 2 2 2 7 6 6 2 2 2 3 3 4 4 4 2 2 2 2 2
12 12 11 12 12 11 10 10 10 10 10 9 8 7 7 6 6 5 5 3 3 2 2 2 2 2 2 5 7 5 2 2 2 2 3 3 3 7 6 3 3 3 2
12 12 12 12 13 12 11 10 11 11 11 10 9 8 7 6 6 5 4 3 2 2 2 2 2 2 2 8 8 5 2 3 2 3 2 4 3 8 6 3 3 3 3
13 12 13 13 13 12 11 10 10 11 10 9 9 9 8 7 6 6 5 5 3 2 2 3 3 3 4 7 8 6 2 3 3 3 3 3 7 9 8 4 2 3 2
13 13 13 13 12 12 11 10 10 9 9 8 9 9 9 8 7 7 6 5 3 4 3 3 4 3 4 8 11 7 6 4 3 3 2 3 7 8 8 8 6 8 7
14 13 13 13 13 12 12 11 9 9 8 8 9 8 9 9 8 7 7 5 4 4 4 3 4 4 2 5 9 9 8 7 4 3 4 9 10 10 10 9 8 7 4
14 13 14 14 14 13 11 10 9 8 8 9 8 9 9 9 9 7 6 5 5 3 4 4 4 4 3 4 5 8 8 8 6 7 7 7 7 7 6 7 8 4 3
13 14 14 14 14 13 12 10 8 7 8 8 8 9 9 9 9 7 7 6 3 4 3 3 3 4 4 3 5 5 6 6 5 5 5 6 6 6 5 4 3 3 4
13 14 15 14 14 13 13 10 9 7 7 8 9 9 9 9 9 8 8 7 7 7 8 8 5 3 4 7 7 6 6 8 8 6 6 6 5 5 4 3 3 3 4